Current Version              Previous Version:    01  02  03  04  05  06  07  08  09  10  11  12  13  14  15  16  17  18  19  20  21  22  23  24  25  26  27  28  29  30  
   31  32  33  34  35  36  37  38  39  40  41  42  43  44  45  46  47  48  49  50  51  52  53  54  55  56  57  58  59  60  

[Printable]
865
ASUS44 KFWD 181510
RWRTX
NORTH TEXAS HOURLY WEATHER ROUNDUP
NATIONAL WEATHER SERVICE FORT WORTH TX
1000 AM CDT FRI APR 18 2014

NOTE: "FAIR" INDICATES FEW OR NO CLOUDS BELOW 12,000 FEET WITH NO
SIGNIFICANT WEATHER AND/OR OBSTRUCTIONS TO VISIBILITY.

TXZ118-119-181600-
DALLAS/FORT WORTH METROPLEX

CITY           SKY/WX    TMP DP  RH WIND       PRES   REMARKS
DFW AIRPORT    PTSUNNY   62  53  72 E8        30.24R
DALLAS LOVE    PTSUNNY   62  50  64 E7        30.24R
FTW MEACHAM    SUNNY     63  54  72 NE7       30.24R
DAL-EXECUTIVE  CLOUDY    64  50  60 NE8       30.23S
FTW-ALLIANCE   PTSUNNY   60  54  80 NE6       30.24S
FTW-NAS-JRB    MOSUNNY   65  52  62 NE9       30.28S
FTW-SPINKS     MOSUNNY   63  55  77 NE6       30.25S
ARLINGTON      PTSUNNY   64  51  62 NE8       30.24R
GRAND PRAIRIE  PTSUNNY   63  50  63 NE7       30.26S
MESQUITE       CLOUDY    61  50  67 CALM      30.25
LANCASTER      CLOUDY    63  48  57 NE8       30.25S
$$

TXZ091>094-102>105-117-120-121-131>134-181600-
NORTH CENTRAL TEXAS

CITY           SKY/WX    TMP DP  RH WIND       PRES   REMARKS
SHRMAN/DENISON CLOUDY    60  49  66 CALM      30.27S
GAINESVILLE    CLOUDY    57  49  74 NE6       30.27F
BOWIE          CLOUDY    58  50  75 CALM      30.25S
BRIDGEPORT     CLOUDY    59  54  84 E6        30.27R
DECATUR        CLOUDY    58  52  81 NE8       30.25S
DENTON         PTSUNNY   60  53  77 NE6       30.24F
MCKINNEY       MOSUNNY   63  49  60 NE9       30.25R
GREENVILLE     SUNNY     64  46  52 NE6       30.25R
ROCKWALL       MOSUNNY   64  48  56 NE8       30.24R
TERRELL        CLOUDY    63  52  67 NE5       30.25R
WAXAHACHIE     CLOUDY    60  50  70 NE9       30.24S
CLEBURNE       MOSUNNY   61  55  82 NE9       30.25S
GRANBURY       MOSUNNY   59  57  95 E3        30.25F
$$

TXZ083>090-098>101-113>116-127>130-139>142-154-155-181600-
WESTERN NORTH TEXAS

CITY           SKY/WX    TMP DP  RH WIND       PRES   REMARKS
WICHITA FALLS  SUNNY     55  48  77 E6        30.25S HAZE
WF-KICKAPOO    SUNNY     58  49  70 NE5       30.27R
VERNON         CLOUDY    54  46  75 E5        30.26F
ABILENE        CLOUDY    53  49  86 VRB5      30.26R FOG
ABILENE-DYESS  CLOUDY    52  50  90 NW5       30.26R
BRECKENRIDGE   CLOUDY    61  55  82 CALM      30.25R HAZE
MINERAL WELLS  CLOUDY    58  54  86 CALM      30.24R FOG
STEPHENVILLE   PTSUNNY   59  53  81 NE5       30.26S
COMANCHE       MOSUNNY   60  55  84 CALM      30.24R
BROWNWOOD      CLOUDY    61  54  77 CALM      30.25R
$$

TXZ143>147-156>162-174-175-181600-
CENTRAL TEXAS

CITY           SKY/WX    TMP DP  RH WIND       PRES   REMARKS
WACO           SUNNY     64  54  69 NE3       30.22S
WACO-MCGREGOR  SUNNY     63  52  67 NE3       30.24S
HILLSBORO      MOSUNNY   64  51  63 NE12      30.23R
CORSICANA      SUNNY     67  49  52 NE7       30.23S
MEXIA          CLOUDY    63  53  71 NE5       30.21S
HEARNE         CLOUDY    65  57  74 N5        30.21S
CAMERON        SUNNY     66  56  70 NE7       30.21S
TEMPLE         MOSUNNY   64  54  68 NE7       30.25R
KILLEEN        PTSUNNY   64  57  77 NE3       30.21R
KILLEEN-SKYLRK SUNNY     63  55  77 NE6       30.21R
FORT HOOD      MOSUNNY   64  55  72 CALM      30.22R
HAMILTON       PTSUNNY   63  58  86 N13       30.24R
LAMPASAS       CLOUDY    61  57  87 NW3       30.22R
$$

TXZ095>097-106>112-122>126-135>138-148>153-164>167-181600-
EAST TEXAS

CITY           SKY/WX    TMP DP  RH WIND       PRES   REMARKS
PARIS          SUNNY     64  46  52 E3        30.26R
SULPHUR SPRNGS SUNNY     64  49  57 NE6       30.26S
CLARKSVILLE    SUNNY     64  50  61 CALM      30.25S
MOUNT PLEASANT SUNNY     64  50  60 N5        30.26R
GILMER         SUNNY     64  54  68 NE6       30.26R
MINEOLA        SUNNY     64  52  63 NE5       30.25R
TYLER          SUNNY     66  50  56 NE7       30.22S
LONGVIEW       SUNNY     65  51  60 NE9       30.22R
MARSHALL       SUNNY     66  54  65 N7        30.25S
ATHENS         PTSUNNY   63  48  59 N3        30.22R
PALESTINE      MOSUNNY   66  50  55 N6        30.23S
JACKSONVILLE   SUNNY     62  49  62 NE7       30.24R
NACOGDOCHES    SUNNY     64  52  63 NE9       30.22S
LUFKIN         PTSUNNY   68  52  56 N7        30.21R
$$

SUPPLEMENTAL OBSERVATIONS (CENTRAL)

CITY           SKY/WX    TMP DP  RH WIND       PRES   REMARKS
CADDO GRASSLND   N/A     64  52  63 NE3         N/A
PAT MAYSE LAKE   N/A     61  48  63 CALM        N/A
GREENVILLE       N/A     64  48  55 NE6         N/A
CEDAR HILL       N/A     64  50  59 NE6         N/A
PALESTINE        N/A     68  54  60 NE5         N/A
MCGREGOR         N/A     64  55  72 NE6         N/A
TEMPLE           N/A     66  55  68 NE10        N/A
$$

SUPPLEMENTAL OBSERVATIONS (WEST)

CITY           SKY/WX    TMP DP  RH WIND       PRES   REMARKS
MILLERS CREEK    N/A     55  54  94 NE1         N/A
POSSUM KINGDOM   N/A     59  54  82 E5          N/A
LBJ GRASSLAND    N/A     61  52  72 NE6         N/A
GRANBURY         N/A     63  54  72 NE6         N/A
HAMBY            N/A     54  50  87 NW5         N/A
IVIE RESERVOIR   N/A     61  54  77 NE7         N/A
COLORADO BEND    N/A     61  57  88 N1          N/A
$$

SUPPLEMENTAL OBSERVATIONS (EAST)

CITY           SKY/WX    TMP DP  RH WIND       PRES   REMARKS
TEXARKANA        N/A     66  50  55 N7          N/A
LINDEN           N/A     66  52  59 E3          N/A
LUFKIN           N/A     64  52  63 MISG        N/A
N SABINE NF      N/A     64  55  72 MISG        N/A
$$

SUPPLEMENTAL OBSERVATIONS ARE A COLLECTION OF AUTOMATED INSTRUMENTS
THAT ARE MAINTAINED BY A VARIETY OF FEDERAL AND STATE AGENCIES.
CERTAIN ELEMENTS...SUCH AS HUMIDITY VALUES AND SUSTAINED WIND
SPEEDS...MAY BE APPROXIMATED.